When you browse on this site, cookies collect data to enhance your experience and personalize the content and advertising you see.
Visit our Privacy Policy to learn more. By continuing to use the site, you agree to this use of cookies and data.
  • en Suisse
  • Liste des pays
  • À 7 jours
  • Température de l'eau
  • Carte satellitaire
  • Carte météo
  • Widgets météo
  • user-avatar
    Se connecter

    Météo par heure à Batken

    Ce jour, 23 Janvier, Mercredi

    Heure Température Précipitation Vent Pression Humidité
    00:00 -2°C° 0 mm 1 m/s 669 mmHg 68%
    01:00 -2°C° 0 mm 1 m/s 669 mmHg 67%
    02:00 -2°C° 0 mm 1 m/s 670 mmHg 67%
    03:00 -2°C° 0 mm 1 m/s 670 mmHg 66%
    04:00 -3°C° 0 mm 0 m/s 670 mmHg 65%
    05:00 -2°C° 0 mm 1 m/s 670 mmHg 64%
    06:00 -2°C° 0 mm 1 m/s 670 mmHg 63%
    07:00 -2°C° 0 mm 1 m/s 671 mmHg 62%
    08:00 -2°C° 0 mm 1 m/s 671 mmHg 61%
    09:00 -1°C° 0 mm 1 m/s 671 mmHg 62%
    10:00 0°C° 0 mm 1 m/s 670 mmHg 62%
    11:00 +1°C° 0 mm 2 m/s 670 mmHg 61%
    12:00 +1°C° 0 mm 2 m/s 670 mmHg 64%
    13:00 +1°C° 0 mm 2 m/s 670 mmHg 66%
    14:00 +1°C° 0 mm 2 m/s 670 mmHg 69%
    15:00 +2°C° 0 mm 1 m/s 670 mmHg 72%
    16:00 +1°C° 0 mm 1 m/s 670 mmHg 76%
    17:00 -1°C° 0 mm 0 m/s 670 mmHg 80%
    18:00 -1°C° 0 mm 0 m/s 671 mmHg 76%
    19:00 0°C° 0 mm 1 m/s 672 mmHg 72%
    20:00 0°C° 0 mm 1 m/s 673 mmHg 68%
    21:00 0°C° 0 mm 1 m/s 673 mmHg 64%
    22:00 -1°C° 0 mm 1 m/s 673 mmHg 61%
    23:00 -1°C° 0 mm 1 m/s 674 mmHg 57%

    Demain, 24 Janvier, Jeudi

    Heure Température Précipitation Vent Pression Humidité
    00:00 -3°C° 0 mm 2 m/s 674 mmHg 56%
    01:00 -3°C° 0 mm 2 m/s 674 mmHg 54%
    02:00 -3°C° 0 mm 2 m/s 674 mmHg 52%
    03:00 -3°C° 0 mm 2 m/s 675 mmHg 52%
    04:00 -4°C° 0 mm 2 m/s 675 mmHg 51%
    05:00 -4°C° 0 mm 2 m/s 676 mmHg 51%
    06:00 -4°C° 0 mm 2 m/s 676 mmHg 50%
    07:00 -4°C° 0 mm 2 m/s 676 mmHg 50%
    08:00 -4°C° 0 mm 2 m/s 677 mmHg 49%
    09:00 -2°C° 0 mm 2 m/s 677 mmHg 48%
    10:00 +1°C° 0 mm 1 m/s 677 mmHg 46%
    11:00 +2°C° 0 mm 1 m/s 677 mmHg 45%
    12:00 +3°C° 0 mm 1 m/s 677 mmHg 48%
    13:00 +3°C° 0 mm 1 m/s 677 mmHg 51%
    14:00 +2°C° 0 mm 2 m/s 676 mmHg 54%
    15:00 +2°C° 0 mm 1 m/s 676 mmHg 58%
    16:00 +2°C° 0 mm 1 m/s 677 mmHg 62%
    17:00 +1°C° 0 mm 1 m/s 677 mmHg 67%
    18:00 0°C° 0 mm 1 m/s 677 mmHg 64%
    19:00 0°C° 0 mm 1 m/s 678 mmHg 61%
    20:00 -2°C° 0 mm 2 m/s 678 mmHg 58%
    21:00 -3°C° 0 mm 2 m/s 679 mmHg 56%
    22:00 -3°C° 0 mm 2 m/s 679 mmHg 53%
    23:00 -3°C° 0 mm 2 m/s 679 mmHg 51%

    Après-demain, 25 Janvier, Vendredi

    Heure Température Précipitation Vent Pression Humidité
    00:00 -3°C° 0 mm 2 m/s 679 mmHg 50%
    01:00 -3°C° 0 mm 2 m/s 679 mmHg 48%
    02:00 -4°C° 0 mm 2 m/s 679 mmHg 47%
    03:00 -4°C° 0 mm 2 m/s 678 mmHg 46%
    04:00 -4°C° 0 mm 2 m/s 678 mmHg 45%
    05:00 -4°C° 0 mm 2 m/s 678 mmHg 44%
    06:00 -4°C° 0 mm 2 m/s 678 mmHg 42%
    07:00 -4°C° 0 mm 2 m/s 678 mmHg 41%
    08:00 -4°C° 0 mm 2 m/s 678 mmHg 40%
    09:00 -3°C° 0 mm 2 m/s 677 mmHg 39%
    10:00 -1°C° 0 mm 2 m/s 676 mmHg 39%
    11:00 +1°C° 0 mm 2 m/s 676 mmHg 39%
    12:00 +1°C° 0 mm 2 m/s 675 mmHg 39%
    13:00 +2°C° 0 mm 2 m/s 674 mmHg 40%
    14:00 +1°C° 0 mm 3 m/s 674 mmHg 40%
    15:00 +1°C° 0 mm 2 m/s 674 mmHg 44%
    16:00 +1°C° 0 mm 2 m/s 674 mmHg 47%
    17:00 -1°C° 0 mm 2 m/s 674 mmHg 51%
    18:00 -2°C° 0 mm 2 m/s 674 mmHg 48%
    19:00 -2°C° 0 mm 2 m/s 675 mmHg 45%
    20:00 -3°C° 0 mm 2 m/s 676 mmHg 42%
    21:00 -3°C° 0 mm 2 m/s 676 mmHg 39%
    22:00 -3°C° 0 mm 2 m/s 676 mmHg 36%
    23:00 -3°C° 0 mm 2 m/s 676 mmHg 34%

    26 Janvier, Samedi

    Heure Température Précipitation Vent Pression Humidité
    00:00 -3°C° 0 mm 2 m/s 676 mmHg 33%
    01:00 -3°C° 0 mm 2 m/s 676 mmHg 32%
    02:00 -3°C° 0 mm 2 m/s 676 mmHg 31%
    03:00 -4°C° 0 mm 2 m/s 675 mmHg 31%
    04:00 -4°C° 0 mm 2 m/s 675 mmHg 32%
    05:00 -4°C° 0 mm 2 m/s 675 mmHg 32%
    06:00 -4°C° 0 mm 2 m/s 675 mmHg 32%
    07:00 -4°C° 0 mm 2 m/s 675 mmHg 31%
    08:00 -4°C° 0 mm 2 m/s 676 mmHg 31%
    09:00 -2°C° 0 mm 2 m/s 675 mmHg 32%
    10:00 -1°C° 0 mm 2 m/s 675 mmHg 32%
    11:00 +2°C° 0 mm 2 m/s 675 mmHg 33%
    12:00 +2°C° 0 mm 2 m/s 674 mmHg 33%
    13:00 +3°C° 0 mm 2 m/s 674 mmHg 33%
    14:00 +3°C° 0 mm 2 m/s 673 mmHg 33%
    15:00 +2°C° 0 mm 2 m/s 673 mmHg 37%
    16:00 +1°C° 0 mm 2 m/s 674 mmHg 41%
    17:00 -1°C° 0 mm 2 m/s 674 mmHg 45%
    18:00 -1°C° 0 mm 2 m/s 674 mmHg 42%
    19:00 -2°C° 0 mm 2 m/s 675 mmHg 39%
    20:00 -3°C° 0 mm 2 m/s 676 mmHg 36%
    21:00 -3°C° 0 mm 2 m/s 676 mmHg 34%
    22:00 -3°C° 0 mm 2 m/s 676 mmHg 33%
    23:00 -4°C° 0 mm 3 m/s 676 mmHg 31%

    27 Janvier, Dimanche

    Heure Température Précipitation Vent Pression Humidité
    00:00 -4°C° 0 mm 3 m/s 676 mmHg 31%
    01:00 -4°C° 0 mm 3 m/s 676 mmHg 31%
    02:00 -4°C° 0 mm 3 m/s 677 mmHg 30%
    03:00 -4°C° 0 mm 3 m/s 676 mmHg 31%
    04:00 -4°C° 0 mm 3 m/s 676 mmHg 32%
    05:00 -4°C° 0 mm 3 m/s 676 mmHg 32%
    06:00 -4°C° 0 mm 3 m/s 677 mmHg 32%
    07:00 -4°C° 0 mm 3 m/s 677 mmHg 33%
    08:00 -3°C° 0 mm 2 m/s 677 mmHg 33%
    09:00 -2°C° 0 mm 2 m/s 676 mmHg 33%
    10:00 +1°C° 0 mm 2 m/s 676 mmHg 33%
    11:00 +2°C° 0 mm 2 m/s 676 mmHg 33%
    12:00 +3°C° 0 mm 2 m/s 675 mmHg 33%
    13:00 +3°C° 0 mm 2 m/s 675 mmHg 33%
    14:00 +4°C° 0 mm 2 m/s 674 mmHg 33%
    15:00 +3°C° 0 mm 2 m/s 674 mmHg 37%
    16:00 +2°C° 0 mm 2 m/s 674 mmHg 41%
    17:00 +2°C° 0 mm 1 m/s 674 mmHg 46%
    18:00 +1°C° 0 mm 2 m/s 674 mmHg 45%
    19:00 +1°C° 0 mm 2 m/s 675 mmHg 43%
    20:00 -1°C° 0 mm 2 m/s 675 mmHg 42%
    21:00 +1°C° 0 mm 2 m/s 675 mmHg 41%
    22:00 +1°C° 0 mm 2 m/s 675 mmHg 40%
    23:00 +1°C° 0 mm 2 m/s 675 mmHg 40%

    28 Janvier, Lundi

    Heure Température Précipitation Vent Pression Humidité
    00:00 +1°C° 0 mm 2 m/s 675 mmHg 40%
    01:00 0°C° 0 mm 3 m/s 674 mmHg 41%
    02:00 0°C° 0 mm 3 m/s 674 mmHg 41%
    03:00 +1°C° 0 mm 2 m/s 674 mmHg 42%
    04:00 +1°C° 0 mm 2 m/s 674 mmHg 43%
    05:00 +1°C° 0 mm 2 m/s 674 mmHg 44%
    06:00 +1°C° 0 mm 2 m/s 674 mmHg 44%
    07:00 +1°C° 0 mm 2 m/s 674 mmHg 44%
    08:00 +1°C° 0 mm 2 m/s 674 mmHg 44%
    09:00 +2°C° 0 mm 2 m/s 674 mmHg 43%
    10:00 +4°C° 0 mm 2 m/s 674 mmHg 41%
    11:00 +5°C° 0 mm 2 m/s 674 mmHg 40%
    12:00 +5°C° 0 mm 2 m/s 673 mmHg 43%
    13:00 +5°C° 0 mm 2 m/s 672 mmHg 45%
    14:00 +4°C° 0 mm 2 m/s 672 mmHg 48%
    15:00 +4°C° 0 mm 2 m/s 671 mmHg 49%
    16:00 +4°C° 0 mm 2 m/s 671 mmHg 50%
    17:00 +4°C° 0 mm 2 m/s 671 mmHg 51%
    18:00 +3°C° 0 mm 2 m/s 671 mmHg 51%
    19:00 +3°C° 0 mm 2 m/s 671 mmHg 51%
    20:00 +3°C° 0 mm 2 m/s 671 mmHg 50%
    21:00 +3°C° 0 mm 2 m/s 671 mmHg 50%
    22:00 +3°C° 0 mm 2 m/s 671 mmHg 50%
    23:00 +3°C° 0 mm 2 m/s 670 mmHg 51%
    Voir plus